Skip Page Navigation
NASA JPL Caltech
NASA Logo - Jet Propulsion Laboratory + View the NASA Portal
+ Center for Near-Earth Object Studies
JPL Home Earth Solar System Stars & Galaxies Technology
JPL Solar System Dynamics
BODIES ORBITS EPHEMERIDES TOOLS PHYSICAL DATA DISCOVERY FAQ SITE MAP
JPL Small-Body Database Browser
Search: [ help ]  
71392 (2000 AV162)
Classification: Main-belt Asteroid          SPK-ID: 2071392
Ephemeris | Orbit Diagram | Orbital Elements | Mission Design | Physical Parameters | Discovery Circumstances ]

[ show orbit diagram ]
Orbital Elements at Epoch 2459000.5 (2020-May-31.0) TDB
Reference: JPL 17 (heliocentric ecliptic J2000)
 Element Value Uncertainty (1-sigma)   Units 
e .1404355298965994 1.0066e-07  
a 2.587398144223352 2.3348e-08 au
q 2.224035514785867 2.5239e-07 au
i 13.40135099788337 7.6908e-06 deg
node 75.1464898193054 2.2034e-05 deg
peri 1.393517187846653 2.886e-05 deg
M 308.9883831941366 2.4237e-05 deg
tp 2459215.907047585323
(2021-Jan-01.40704759)
0.00010414 TDB
period 1520.174069875846
4.16
2.0576e-05
5.633e-08
d
yr
n .2368149852927049 3.2054e-09 deg/d
Q 2.950760773660836 2.6627e-08 au
  Orbit Determination Parameters
   # obs. used (total)      520  
   data-arc span      8235 days (22.55 yr)  
   first obs. used      1995-12-24  
   last obs. used      2018-07-11  
   planetary ephem.      DE431  
   SB-pert. ephem.      SB431-N16  
   condition code      0  
   norm. resid. RMS      .551  
   source      ORB  
   producer      Otto Matic  
   solution date      2018-Oct-04 02:15:02  

Additional Information
 Earth MOID = 1.23932 au 
 Jupiter MOID = 2.32357 au 
 T_jup = 3.369 
[ show covariance matrix ]

Ephemeris | Orbit Diagram | Orbital Elements | Mission Design | Physical Parameters | Discovery Circumstances ]

Physical Parameter Table
Parameter Symbol Value Units Sigma Reference Notes
absolute magnitude H 15.0   n/a MPO432267  
diameter diameter 5.185 km 0.241 urn:nasa:pds:neowise_diameters_albedos::2.0[mainbelt] (http://adsabs.harvard.edu/abs/2011ApJ...741...68M)  
geometric albedo albedo 0.072   0.009 urn:nasa:pds:neowise_diameters_albedos::2.0[mainbelt] (http://adsabs.harvard.edu/abs/2011ApJ...741...68M)  

71392 (2000 AV162)          Discovered 2000-Jan-05 by LINEAR at Socorro
Reference: 20031109/Numbers.arcLast Updated: 2004-04-19

Alternate Designations
 2000 AV162 = 1995 YO24 
Ephemeris | Orbit Diagram | Orbital Elements | Mission Design | Physical Parameters | Discovery Circumstances ]
ABOUT SSD CREDITS/AWARDS PRIVACY/COPYRIGHT GLOSSARY LINKS
FirstGov 2020-Jul-06 00:23 UT
(server date/time)  
NASA Home Page
Site Manager:   Ryan S. Park
Webmaster  Alan B. Chamberlin